TimeNZDT,TemperatureF,Dew PointF,Humidity,Sea Level PressureIn,VisibilityMPH,Wind Direction,Wind SpeedMPH,Gust SpeedMPH,PrecipitationIn,Events,Conditions,WindDirDegrees,DateUTC
12:50 AM,-11.2,-9999,N/A,28.78,6.2,NE,3.5,-,N/A,Snow,Light Snow Grains,40,2013-01-22 11:50:00
1:00 AM,-12,,,,7,NE,3.5,,,Snow,Snow Grains,40,2013-01-22 12:00:00
1:50 AM,-11.2,-9999,N/A,28.77,5.6,NNE,4.6,-,N/A,Snow,Light Snow Grains,30,2013-01-22 12:50:00
2:50 AM,-13.0,-9999,N/A,28.76,6.2,NE,6.9,-,N/A,Snow,Light Snow Grains,40,2013-01-22 13:50:00
3:50 AM,-14.8,-9999,N/A,28.76,1.5,NE,8.1,-,N/A,Snow,Light Snow Grains,40,2013-01-22 14:50:00
4:50 AM,-16.6,-9999,N/A,28.75,0.4,NE,8.1,-,N/A,Fog-Snow,Light Snow Grains,50,2013-01-22 15:50:00
5:50 AM,-16.6,-9999,N/A,28.73,6.2,ENE,4.6,-,N/A,Snow,Light Snow Grains,70,2013-01-22 16:50:00
6:50 AM,-18.4,-9999,N/A,28.73,6.2,ENE,6.9,-,N/A,Snow,Light Snow Grains,60,2013-01-22 17:50:00
7:00 AM,-18,,,,7,ENE,6.9,,,Snow,Snow Grains,60,2013-01-22 18:00:00
7:50 AM,-16.6,-9999,N/A,28.73,6.2,NNE,8.1,-,N/A,Snow,Light Snow Grains,30,2013-01-22 18:50:00
8:50 AM,-14.8,-9999,N/A,28.72,6.2,North,9.2,-,N/A,Snow,Light Snow Grains,10,2013-01-22 19:50:00
9:28 AM,-13.0,-9999,N/A,28.72,6.2,North,8.1,-,N/A,Snow,Light Snow Grains,10,2013-01-22 20:28:00
9:50 AM,-13.0,-9999,N/A,28.72,6.2,North,8.1,-,N/A,Snow,Light Snow Grains,10,2013-01-22 20:50:00
10:50 AM,-11.2,-9999,N/A,28.72,6.2,NNW,9.2,-,N/A,Snow,Light Snow Grains,340,2013-01-22 21:50:00
11:25 AM,-11.2,-9999,N/A,28.72,6.2,NNW,9.2,-,N/A,Snow,Light Snow Grains,330,2013-01-22 22:25:00
11:50 AM,-11.2,-9999,N/A,28.71,-9999.0,North,10.4,-,N/A,Snow,Light Snow Grains,350,2013-01-22 22:50:00
12:30 PM,-13.0,-9999,N/A,28.71,6.2,North,11.5,-,N/A,Snow,Light Snow Grains,350,2013-01-22 23:30:00
12:50 PM,-13.0,-9999,N/A,28.71,6.2,North,9.2,-,N/A,Snow,Light Snow Grains,350,2013-01-22 23:50:00
1:00 PM,-13,,,,7,North,9.2,,,Snow,Snow Grains,350,2013-01-23 00:00:00
1:50 PM,-13.0,-9999,N/A,28.71,6.2,NNW,8.1,-,N/A,,Scattered Clouds,340,2013-01-23 00:50:00
2:50 PM,-14.8,-9999,N/A,28.71,6.2,North,9.2,-,N/A,,Ice Crystals,350,2013-01-23 01:50:00
3:50 PM,-14.8,-9999,N/A,28.71,6.2,NNW,9.2,-,N/A,Snow,Light Snow Grains,340,2013-01-23 02:50:00
4:50 PM,-16.6,-9999,N/A,28.71,6.2,North,10.4,-,N/A,,Mostly Cloudy,350,2013-01-23 03:50:00
5:50 PM,-16.6,-9999,N/A,28.71,6.2,North,8.1,-,N/A,,Ice Crystals,360,2013-01-23 04:50:00
6:50 PM,-18.4,-9999,N/A,28.71,6.2,North,8.1,-,N/A,Snow,Light Snow Grains,350,2013-01-23 05:50:00
7:00 PM,-18,,,,7,North,9.2,,,Snow,Snow Grains,350,2013-01-23 06:00:00
7:50 PM,-16.6,-9999,N/A,28.72,6.2,North,11.5,-,N/A,,Ice Crystals,10,2013-01-23 06:50:00
8:50 PM,-18.4,-9999,N/A,28.72,6.2,North,11.5,-,N/A,,Mostly Cloudy,360,2013-01-23 07:50:00
9:50 PM,-18.4,-9999,N/A,28.72,6.2,North,12.7,-,N/A,Snow,Blowing Snow,360,2013-01-23 08:50:00
11:50 PM,-20.2,-9999,N/A,28.73,6.2,North,12.7,-,N/A,,Partly Cloudy,350,2013-01-23 10:50:00